Regional Weather Roundup
Issued by NWS

Home | Current Version | Previous Version | Graphics & Text | Print | Product List | Glossary On
Versions: 1 2 3 4 5 6 7 8 9 10 11 12 13 14 15 16 17 18 19 20 21 22 23 24 25 26 27 28 29 30 31 32 33 34 35 36 37 38 39 40 41 42 43 44 45 46 47 48 49 50
000
ASUS43 KIND 181609
RWRIN

WEATHER ROUNDUP FOR INDIANA
NATIONAL WEATHER SERVICE INDIANAPOLIS IN
1200 PM EDT SAT APR 18 2015

NOTE: "FAIR" INDICATES FEW OR NO CLOUDS BELOW 12,000 FEET WITH NO
SIGNIFICANT WEATHER AND/OR OBSTRUCTIONS TO VISIBILITY.

* - STATION DOES NOT REPORT WEATHER SUCH AS PRECIPITATION OR FOG.

+ - STATION NOT QUALITY CONTROLLED BY THE NATIONAL WEATHER SERVICE.
    USE DATA WITH CAUTION...ESPECIALLY DEWPOINT AND RELATIVE
    HUMIDITY OBSERVATIONS.

INZ001>003-010>013-019-020-181700-
NORTHWEST INDIANA

CITY           SKY/WX    TMP DP  RH WIND       PRES   REMARKS
GARY /AIRPORT/ CLOUDY    54  37  54 N14       30.09S HAZE
KNOX *+        MOSUNNY   72  28  20 CALM      30.03F
MICHIGAN CITY+ MOSUNNY   68  41  37 NW7       30.05S
MONTICELLO +   PTSUNNY   73  53  50 CALM      30.04S
RENSSELAER +   MOSUNNY   73  54  49 W5        30.05S
VALPARAISO     MOSUNNY   73  49  42 N6        30.05S

$$

LMZ046-743>745-181700-
SOUTHERN LAKE MICHIGAN

STATION/POSITION TIME  TEMP WIND        PRES
                       AIR  DIR/SP/G
                 (UTC) (F)  (DEG/KT/KT) (MB)
BURNS HARBOR     1600   46  340/  7/ 10 1019.0S
MICHIGAN CITY    1600   48  350/  8/  9   N/A
4NW MICH CITY    1600   44                N/A

$$

INZ004-005-014>016-021>024-181700-
NORTH CENTRAL INDIANA

CITY           SKY/WX    TMP DP  RH WIND       PRES   REMARKS
ELKHART        MOSUNNY   73  45  35 N6        30.05S
GOSHEN         SUNNY     74  52  46 NE12      30.04S
LOGANSPORT +   PTSUNNY   72  48  43 CALM      30.06S
PERU/GRISSOM   MOSUNNY   74  49  42 CALM      30.04S
ROCHESTER +    MOSUNNY   73  52  46 SW3       30.05F
SOUTH BEND     SUNNY     75  48  38 NE7       30.05S
WARSAW +       SUNNY     73  52  46 W3        30.04F

$$

INZ006>009-017-018-025>027-181700-
NORTHEAST INDIANA

CITY           SKY/WX    TMP DP  RH WIND       PRES   REMARKS
ANGOLA *+      SUNNY     73  52  46 N8        30.05S
AUBURN +       MOSUNNY   75  46  35 CALM      30.05F
FORT WAYNE     MOSUNNY   75  51  43 NW8       30.05F
HUNTINGTON +   MOSUNNY   74  46  36 W5        30.04F

$$

INZ028-029-035-036-043>045-051>053-181700-
WEST CENTRAL INDIANA

CITY           SKY/WX    TMP DP  RH WIND       PRES   REMARKS
CRAWFORDSVL +  PTSUNNY   70  36  28 E3        30.06S
GREENCASTLE +  CLOUDY    70  43  37 E3        30.07R
LAFAYETTE      PTSUNNY   72  50  45 CALM      30.05R
TERRE HAUTE    CLOUDY    73  50  44 VRB5      30.04R

$$

INZ030>032-037>040-046>048-054>057-064-065-181700-
CENTRAL INDIANA

CITY           SKY/WX    TMP DP  RH WIND       PRES   REMARKS
ANDERSON       SUNNY     73  41  31 CALM      30.06F
CP ATTERBURY + CLOUDY    70  43  37 SE3       30.07R
COLUMBUS       SUNNY     70  39  32 S5        30.06S
FISHERS *+     CLOUDY    72  48  43 S3        30.07R
FRANKFORT +    PTSUNNY   74  47  38 CALM      30.07R
GREENWOOD *+   CLOUDY    72  39  30 S6        30.07R
INDIANAPOLIS   CLOUDY    70  45  40 SE6       30.05R
-EAGLE CREEK   CLOUDY    71  43  36 VRB5      30.06R
KOKOMO *+      MOSUNNY   73  48  40 CALM      30.05S
MARION +       MOSUNNY   72  44  36 CALM      30.06S
MT COMFORT *+  PTSUNNY   73  28  19 S3        30.07R
SHELBYVILLE    CLOUDY    74  45  35 VRB3      30.06R
ZIONSVILLE +   PTSUNNY   73  40  30 E3        30.08R

$$

INZ033-034-041-042-049-050-058-059-181700-
EAST CENTRAL INDIANA

CITY           SKY/WX    TMP DP  RH WIND       PRES   REMARKS
MUNCIE         MOSUNNY   74  45  35 CALM      30.05F

$$

INZ060-061-067>069-081>083-085>088-181700-
SOUTHWEST INDIANA

CITY           SKY/WX    TMP DP  RH WIND       PRES   REMARKS
EVANSVILLE     PTSUNNY   73  60  63 E5        30.03R
HUNTINGBURG *+ MOSUNNY   73  57  56 E9        30.02F
WASHINGTON +   MOSUNNY   72  51  48 E5        30.03S

$$

INZ062-063-066-070>080-084-089>092-181700-
SOUTH CENTRAL AND SOUTHEAST INDIANA

CITY           SKY/WX    TMP DP  RH WIND       PRES   REMARKS
BEDFORD +      PTSUNNY   73  45  35 SE5       30.05S
BLOOMINGTON    CLOUDY    73  48  41 SE7       30.05R
MADISON *+     CLOUDY    70  39  32 E7        30.07F
NORTH VERNON + CLOUDY    73  39  29 CALM      30.07R

$$



USA.gov is the U.S. government's official web portal to all federal, state and local government web resources and services.